Location: Dumpton Point
(51.3500°N, 1.4433°E)
Time: 06:40:14
(UTC+00:00)

Altair - Pass Details

Date: 03 October 2022
Orbit: 1501 x 1682 km, 47.2° (Epoch: 26 November)

Event Time Altitude Azimuth Distance (km) Brightness Sun altitude
Rises 04:31:01 0° 216° (SW) 4,758 - -14.3°
Exits shadow 04:31:48 - 214° (SW) 4,524 9.5 -14.2°
Reaches altitude 10° 04:34:18 10° 209° (SSW) 3,801 9.2 -13.8°
Maximum altitude 04:43:03 40° 144° (SE) 2,261 8.6 -12.5°
Drops below altitude 10° 04:52:04 10° 80° (E) 3,927 11.2 -11.1°
Sets 04:55:30 0° 74° (ENE) 4,929 12.2 -10.5°
